Location: Izdebno
(52.6670°N, 16.2170°E)
Time: 04:26:17
(UTC+02:00)

Transit 2A - Pass Details

Date: 27 February 2024
Orbit: 596 x 956 km, 66.7° (Epoch: 21 April)

Event Time Altitude Azimuth Distance (km) Brightness Sun altitude
Rises 17:56:40 0° 164° (SSE) 2,849 8.9 -4.9°
Reaches altitude 10° 17:59:57 10° 137° (SE) 1,934 7.8 -5.4°
Maximum altitude 18:02:02 13° 108° (ESE) 1,720 7.3 -5.7°
Drops below altitude 10° 18:04:08 10° 78° (ENE) 1,945 7.4 -6.1°
Enters shadow 18:05:24 - 66° (ENE) 2,245 7.8 -6.2°
Sets 18:07:27 0° 52° (NE) 2,878 - -6.6°
